Weather History for KVAY - March, 2013

Change the Weather History Date:

Friday, March 29, 2013

  Actual Average (KWRI) Record (KWRI)
Temperature  
Mean Temperature 45 °F -  
Max Temperature 54 °F 56 °F 82 °F (1998)
Min Temperature 37 °F 36 °F 24 °F (2015)
Degree Days  
Heating Degree Days 20    
Moisture  
Dew Point 26 °F    
Average Humidity 46    
Maximum Humidity 62    
Minimum Humidity 34    
Precipitation  
Precipitation 0.00 in - - ()
Sea Level Pressure  
Sea Level Pressure 30.15 in    
Wind  
Wind Speed 6 mph (WNW)    
Max Wind Speed 13 mph    
Max Gust Speed 20 mph    
Visibility 10 miles    
Events      
Averages and records for this station are not official NWS values.
T = Trace of Precipitation, MM = Missing Value Source: NWS Daily Summary

Daily Weather History Graph

Daily Weather History Graph

Search for Another Location

Airport or City:

Trip Planner

Search our weather history database for the weather conditions in past years. The results will help you decide how hot, cold, wet, or windy it might be!

Date:

Astronomy

Mar. 29, 2013 Rise Set
Actual Time 6:47 AM EDT 7:20 PM EDT
Civil Twilight 6:20 AM EDT 7:48 PM EDT
Nautical Twilight 5:48 AM EDT 8:20 PM EDT
Astronomical Twilight 5:15 AM EDT 8:53 PM EDT
Moon 10:17 PM EDT (3/29) 7:55 AM EDT (3/29)
Length of Visible Light 13h 27m
Length of Day
12h 32m
Waning Gibbous, 93% of the Moon is Illuminated
Mar 29
Waning Gibbous
Apr 3
Last Quarter
Apr 10
New
Apr 18
First Quarter
Apr 25
Full

Hourly Weather History & Observations

Time (EDT) Temp. Windchill Dew Point Humidity Pressure Visibility Wind Dir Wind Speed Gust Speed Precip Events Conditions
12:54 AM 45.0 °F 42.6 °F 27.0 °F 49% 30.15 in 10.0 mi Variable 4.6 mph - N/A   Overcast
1:54 AM 44.1 °F 40.8 °F 27.0 °F 51% 30.16 in 10.0 mi Variable 5.8 mph - N/A   Mostly Cloudy
2:54 AM 42.1 °F 39.2 °F 26.1 °F 53% 30.16 in 10.0 mi NW 4.6 mph - N/A   Clear
3:54 AM 41.0 °F 38.0 °F 26.1 °F 55% 30.16 in 10.0 mi WNW 4.6 mph - N/A   Clear
4:54 AM 39.0 °F 35.7 °F 26.1 °F 60% 30.16 in 10.0 mi West 4.6 mph - N/A   Clear
5:54 AM 39.0 °F 35.7 °F 26.1 °F 60% 30.17 in 10.0 mi West 4.6 mph - N/A   Clear
6:54 AM 37.9 °F 35.5 °F 26.1 °F 62% 30.18 in 10.0 mi West 3.5 mph - N/A   Clear
7:54 AM 39.9 °F 35.8 °F 26.1 °F 58% 30.19 in 10.0 mi West 5.8 mph - N/A   Clear
8:54 AM 43.0 °F 38.2 °F 26.1 °F 51% 30.19 in 10.0 mi NNW 8.1 mph - N/A   Clear
9:54 AM 46.0 °F 41.9 °F 25.0 °F 44% 30.18 in 10.0 mi NW 8.1 mph - N/A   Clear
10:54 AM 48.9 °F - 25.0 °F 39% 30.18 in 10.0 mi West 8.1 mph - N/A   Clear
11:54 AM 48.9 °F - 24.1 °F 38% 30.17 in 10.0 mi Variable 3.5 mph - N/A   Clear
12:54 PM 51.1 °F - 25.0 °F 36% 30.14 in 10.0 mi WNW 10.4 mph 16.1 mph N/A   Scattered Clouds
1:54 PM 53.1 °F - 25.0 °F 34% 30.12 in 10.0 mi NW 9.2 mph - N/A   Mostly Cloudy
2:54 PM 53.1 °F - 25.0 °F 34% 30.10 in 10.0 mi WNW 11.5 mph 19.6 mph N/A   Overcast
3:54 PM 52.0 °F - 26.1 °F 37% 30.09 in 10.0 mi NNW 8.1 mph - N/A   Overcast
4:54 PM 52.0 °F - 26.1 °F 37% 30.10 in 10.0 mi NW 6.9 mph - N/A   Overcast
5:54 PM 52.0 °F - 27.0 °F 38% 30.10 in 10.0 mi NW 12.7 mph 17.3 mph N/A   Overcast
6:54 PM 50.0 °F - 28.0 °F 43% 30.11 in 10.0 mi NW 4.6 mph - N/A   Overcast
7:54 PM 50.0 °F - 28.0 °F 43% 30.13 in 10.0 mi WNW 3.5 mph - N/A   Overcast
8:54 PM 48.9 °F - 28.0 °F 44% 30.14 in 10.0 mi NW 3.5 mph - N/A   Overcast
9:54 PM 48.0 °F - 28.0 °F 46% 30.15 in 10.0 mi Calm Calm - N/A   Overcast
10:54 PM 48.0 °F - 28.0 °F 46% 30.16 in 10.0 mi Calm Calm - N/A   Overcast
11:54 PM 46.9 °F - 28.0 °F 48% 30.17 in 10.0 mi Calm Calm - N/A   Overcast